PDA1204 UKBB-LGKR

Flight info

Callsign PDA1204
Flight time 2h 10m
Altitude 34000
Route BASOR M856 SULUM N145 LAVDA N181 NUNTA/N0447F340 DCT TIMUR N731 LETNI DCT BITLA UN731 YNN UM600 PARAX
Aircraft A321/M-SDE3FGHIJ4RWY/LB1

Departure

Time 2026-05-06 11:40
Airport Boryspil International Airport (UKBB)

Arrival

Time 2026-05-06 13:51
Airport Corfu Ioannis Kapodistrias International Airport (LGKR)
Time Latitude Longitude Altitude Speed Heading
2026-05-06 11:18 50.33564 30.89867 411 ft 0 kts
2026-05-06 11:33 50.33596 30.89901 413 ft 11 kts 62°
2026-05-06 11:33 50.33601 30.90066 415 ft 17 kts 87°
2026-05-06 11:34 50.33677 30.90148 411 ft 13 kts
2026-05-06 11:34 50.33789 30.90154 410 ft 22 kts
2026-05-06 11:34 50.33953 30.90170 412 ft 23 kts
2026-05-06 11:34 50.34109 30.90180 411 ft 22 kts
2026-05-06 11:35 50.34254 30.90187 414 ft 20 kts
2026-05-06 11:35 50.34390 30.90202 408 ft 19 kts
2026-05-06 11:35 50.34516 30.90210 412 ft 17 kts
2026-05-06 11:35 50.34631 30.90218 412 ft 16 kts
2026-05-06 11:36 50.34736 30.90226 408 ft 14 kts
2026-05-06 11:36 50.34829 30.90232 415 ft 13 kts
2026-05-06 11:36 50.34914 30.90238 415 ft 13 kts
2026-05-06 11:36 50.35049 30.90246 412 ft 23 kts
2026-05-06 11:37 50.35207 30.90257 413 ft 22 kts
2026-05-06 11:37 50.35354 30.90271 415 ft 21 kts
2026-05-06 11:37 50.35493 30.90280 415 ft 19 kts
2026-05-06 11:37 50.35621 30.90288 415 ft 18 kts
2026-05-06 11:38 50.35739 30.90296 413 ft 17 kts
2026-05-06 11:38 50.35876 30.90311 415 ft 21 kts
2026-05-06 11:38 50.36013 30.90326 415 ft 19 kts 14°
2026-05-06 11:38 50.36085 30.90458 416 ft 15 kts 85°
2026-05-06 11:39 50.36046 30.90585 416 ft 13 kts 140°
2026-05-06 11:39 50.35929 30.90639 417 ft 22 kts 181°
2026-05-06 11:39 50.35622 30.90614 409 ft 76 kts 182°
2026-05-06 11:39 50.34897 30.90561 423 ft 130 kts 182°
2026-05-06 11:40 50.33855 30.90486 425 ft 171 kts 183°
2026-05-06 11:40 50.32652 30.90338 990 ft 168 kts 186°
2026-05-06 11:40 50.31456 30.90149 1539 ft 176 kts 188°
2026-05-06 11:40 50.30198 30.89969 1759 ft 194 kts 189°
2026-05-06 11:41 50.28766 30.89756 1785 ft 217 kts 188°
2026-05-06 11:41 50.27184 30.89517 1880 ft 241 kts 187°
2026-05-06 11:41 50.25458 30.89272 2302 ft 254 kts 188°
2026-05-06 11:41 50.23670 30.89134 2969 ft 259 kts 182°
2026-05-06 11:42 50.21849 30.89150 3688 ft 262 kts 181°
2026-05-06 11:42 50.20036 30.89218 4367 ft 265 kts 181°
2026-05-06 11:42 50.18185 30.89196 5046 ft 267 kts 192°
2026-05-06 11:42 50.16410 30.88356 5664 ft 269 kts 200°
2026-05-06 11:43 50.14615 30.87475 6360 ft 272 kts 199°
2026-05-06 11:43 50.12793 30.86648 6993 ft 275 kts 198°
2026-05-06 11:43 50.10932 30.85835 7594 ft 280 kts 197°
2026-05-06 11:44 50.07135 30.84190 8848 ft 286 kts 197°
2026-05-06 11:44 50.05203 30.83352 9434 ft 291 kts 194°
2026-05-06 11:44 50.03198 30.82766 9997 ft 295 kts 191°
2026-05-06 11:44 50.01176 30.82195 10363 ft 306 kts 191°
2026-05-06 11:45 49.99013 30.81572 10487 ft 326 kts 191°
2026-05-06 11:45 49.96726 30.80905 10615 ft 344 kts 191°
2026-05-06 11:45 49.94321 30.80206 10822 ft 357 kts 191°
2026-05-06 11:45 49.91855 30.79499 11343 ft 361 kts 190°
2026-05-06 11:46 49.89367 30.78793 11844 ft 365 kts 190°
2026-05-06 11:46 49.86855 30.78078 12405 ft 368 kts 190°
2026-05-06 11:46 49.84332 30.77355 12968 ft 370 kts 190°
2026-05-06 11:46 49.81786 30.76626 13466 ft 374 kts 190°
2026-05-06 11:47 49.79209 30.75891 13956 ft 377 kts 189°
2026-05-06 11:47 49.76616 30.75155 14417 ft 380 kts 189°
2026-05-06 11:47 49.74031 30.74419 14877 ft 383 kts 189°
2026-05-06 11:47 49.71399 30.73668 15350 ft 385 kts 190°
2026-05-06 11:48 49.68760 30.72916 15799 ft 388 kts 189°
2026-05-06 11:48 49.66095 30.72161 16218 ft 390 kts 189°
2026-05-06 11:48 49.63409 30.71406 16678 ft 392 kts 189°
2026-05-06 11:48 49.60716 30.70651 17108 ft 395 kts 189°
2026-05-06 11:49 49.58023 30.69672 17513 ft 398 kts 198°
2026-05-06 11:49 49.55480 30.67956 17901 ft 402 kts 208°
2026-05-06 11:49 49.53165 30.65506 18279 ft 405 kts 220°
2026-05-06 11:49 49.51083 30.62550 18629 ft 407 kts 223°
2026-05-06 11:50 49.49015 30.59582 18995 ft 408 kts 222°
2026-05-06 11:50 49.46927 30.56609 19305 ft 410 kts 222°
2026-05-06 11:50 49.44820 30.53622 19596 ft 413 kts 222°
2026-05-06 11:50 49.42700 30.50629 19934 ft 414 kts 222°
2026-05-06 11:51 49.40578 30.47641 20309 ft 414 kts 222°
2026-05-06 11:51 49.38446 30.44641 20614 ft 417 kts 222°
2026-05-06 11:51 49.36323 30.41653 20888 ft 420 kts 222°
2026-05-06 11:51 49.34167 30.38615 21251 ft 421 kts 222°
2026-05-06 11:52 49.32007 30.35570 21634 ft 422 kts 222°
2026-05-06 11:52 49.29843 30.32516 21952 ft 424 kts 223°
2026-05-06 11:52 49.27657 30.29439 22234 ft 427 kts 222°
2026-05-06 11:52 49.25461 30.26362 22610 ft 428 kts 222°
2026-05-06 11:53 49.23261 30.23289 22997 ft 429 kts 222°
2026-05-06 11:53 49.21046 30.20203 23287 ft 432 kts 222°
2026-05-06 11:53 49.18818 30.17101 23578 ft 435 kts 222°
2026-05-06 11:53 49.16580 30.13984 23858 ft 437 kts 222°
2026-05-06 11:54 49.14360 30.10892 24165 ft 438 kts 222°
2026-05-06 11:54 49.12101 30.07748 24404 ft 440 kts 222°
2026-05-06 11:54 49.09825 30.04582 24629 ft 443 kts 222°
2026-05-06 11:54 49.07544 30.01414 24922 ft 444 kts 222°
2026-05-06 11:55 49.05243 29.98225 25209 ft 445 kts 222°
2026-05-06 11:55 49.02940 29.95038 25456 ft 447 kts 222°
2026-05-06 11:55 49.00656 29.91888 25702 ft 449 kts 222°
2026-05-06 11:55 48.98330 29.88689 25982 ft 450 kts 222°
2026-05-06 11:56 48.96000 29.85481 26229 ft 453 kts 222°
2026-05-06 11:56 48.93665 29.82263 26474 ft 454 kts 222°
2026-05-06 11:56 48.91315 29.79027 26746 ft 456 kts 222°
2026-05-06 11:56 48.88962 29.75791 27066 ft 456 kts 222°
2026-05-06 11:57 48.86601 29.72547 27280 ft 458 kts 222°
2026-05-06 11:57 48.84225 29.69290 27461 ft 461 kts 222°
2026-05-06 11:57 48.81834 29.66020 27730 ft 462 kts 222°
2026-05-06 11:57 48.79442 29.62755 27980 ft 463 kts 222°
2026-05-06 11:58 48.77044 29.59485 28174 ft 465 kts 222°
2026-05-06 11:58 48.75449 29.57312 28305 ft 466 kts 222°
2026-05-06 11:58 48.73031 29.54021 28548 ft 467 kts 222°
2026-05-06 11:58 48.70610 29.50733 28745 ft 468 kts 222°
2026-05-06 11:59 48.68187 29.47441 28911 ft 470 kts 222°
2026-05-06 11:59 48.64946 29.43050 29157 ft 471 kts 222°
2026-05-06 11:59 48.62503 29.39751 29407 ft 471 kts 222°
2026-05-06 11:59 48.60849 29.37515 29560 ft 471 kts 222°
2026-05-06 12:00 48.58408 29.34223 29771 ft 471 kts 222°
2026-05-06 12:00 48.55994 29.30972 30013 ft 470 kts 222°
2026-05-06 12:00 48.53556 29.27695 30215 ft 469 kts 222°
2026-05-06 12:00 48.51107 29.24399 30396 ft 470 kts 222°
2026-05-06 12:01 48.48669 29.21122 30602 ft 469 kts 222°
2026-05-06 12:01 48.46236 29.17859 30836 ft 467 kts 222°
2026-05-06 12:01 48.43805 29.14600 31032 ft 467 kts 222°
2026-05-06 12:01 48.41371 29.11342 31220 ft 467 kts 222°
2026-05-06 12:02 48.38945 29.08096 31445 ft 466 kts 222°
2026-05-06 12:02 48.36522 29.04861 31657 ft 466 kts 222°
2026-05-06 12:02 48.34098 29.01632 31852 ft 466 kts 222°
2026-05-06 12:02 48.31672 28.98407 32056 ft 465 kts 222°
2026-05-06 12:03 48.29250 28.95190 32288 ft 464 kts 223°
2026-05-06 12:03 48.26835 28.91981 32466 ft 464 kts 223°
2026-05-06 12:03 48.24444 28.88811 32665 ft 464 kts 223°
2026-05-06 12:03 48.22024 28.85608 32879 ft 463 kts 222°
2026-05-06 12:04 48.19607 28.82421 33090 ft 462 kts 223°
2026-05-06 12:04 48.17184 28.79234 33269 ft 462 kts 222°
2026-05-06 12:04 48.14770 28.76061 33469 ft 462 kts 222°
2026-05-06 12:04 48.12291 28.73017 33683 ft 461 kts 216°
2026-05-06 12:05 48.09561 28.70479 33867 ft 461 kts 211°
2026-05-06 12:05 48.06814 28.68088 33977 ft 460 kts 211°
2026-05-06 12:05 48.01301 28.63294 33994 ft 457 kts 211°
2026-05-06 12:06 47.95803 28.58518 33997 ft 457 kts 211°
2026-05-06 12:06 47.90310 28.53745 33997 ft 456 kts 211°
2026-05-06 12:07 47.84849 28.49027 33999 ft 456 kts 211°
2026-05-06 12:07 47.79352 28.44297 33998 ft 456 kts 211°
2026-05-06 12:08 47.73853 28.39576 34000 ft 456 kts 211°
2026-05-06 12:08 47.68363 28.34856 33994 ft 456 kts 211°
2026-05-06 12:09 47.62863 28.30142 33990 ft 456 kts 211°
2026-05-06 12:09 47.57359 28.25455 33994 ft 456 kts 211°
2026-05-06 12:10 47.51852 28.20766 33993 ft 457 kts 211°
2026-05-06 12:10 47.46377 28.16104 34000 ft 457 kts 211°
2026-05-06 12:11 47.40861 28.11423 34003 ft 457 kts 211°
2026-05-06 12:11 47.35348 28.06768 34018 ft 457 kts 211°
2026-05-06 12:12 47.29825 28.02116 33998 ft 457 kts 211°
2026-05-06 12:12 47.24293 27.97471 33995 ft 458 kts 211°
2026-05-06 12:13 47.18755 27.92820 33995 ft 458 kts 211°
2026-05-06 12:13 47.13243 27.88207 33992 ft 458 kts 211°
2026-05-06 12:14 47.07962 27.83028 33994 ft 456 kts 220°
2026-05-06 12:14 47.02962 27.77278 33997 ft 457 kts 219°
2026-05-06 12:15 46.97941 27.71566 33998 ft 457 kts 219°
2026-05-06 12:15 46.92906 27.65869 33998 ft 457 kts 219°
2026-05-06 12:16 46.87904 27.60208 33999 ft 457 kts 219°
2026-05-06 12:16 46.82884 27.54507 34000 ft 457 kts 219°
2026-05-06 12:17 46.77855 27.48811 33991 ft 457 kts 219°
2026-05-06 12:17 46.72830 27.43142 33993 ft 457 kts 219°
2026-05-06 12:18 46.67792 27.37484 33999 ft 457 kts 219°
2026-05-06 12:18 46.62752 27.31835 34001 ft 457 kts 219°
2026-05-06 12:19 46.57737 27.26233 33998 ft 457 kts 219°
2026-05-06 12:19 46.52693 27.20608 34000 ft 457 kts 219°
2026-05-06 12:20 46.47639 27.14981 34001 ft 457 kts 219°
2026-05-06 12:20 46.42627 27.09416 33985 ft 456 kts 219°
2026-05-06 12:21 46.37583 27.03827 34010 ft 455 kts 219°
2026-05-06 12:21 46.32577 26.98292 34014 ft 454 kts 219°
2026-05-06 12:22 46.27556 26.92758 34011 ft 454 kts 219°
2026-05-06 12:22 46.22528 26.87233 34009 ft 453 kts 219°
2026-05-06 12:23 46.17505 26.81725 34013 ft 453 kts 219°
2026-05-06 12:23 46.12486 26.76223 34009 ft 453 kts 219°
2026-05-06 12:24 46.07474 26.70742 34009 ft 452 kts 219°
2026-05-06 12:24 46.02449 26.65273 34011 ft 452 kts 219°
2026-05-06 12:25 45.97462 26.59849 34017 ft 452 kts 219°
2026-05-06 12:25 45.92439 26.54399 34020 ft 452 kts 219°
2026-05-06 12:26 45.87412 26.48957 34017 ft 452 kts 219°
2026-05-06 12:26 45.82386 26.43531 34018 ft 452 kts 219°
2026-05-06 12:27 45.77345 26.38108 34015 ft 452 kts 219°
2026-05-06 12:27 45.72350 26.32741 34026 ft 452 kts 219°
2026-05-06 12:28 45.67312 26.27342 34032 ft 452 kts 219°
2026-05-06 12:28 45.62281 26.21957 34034 ft 452 kts 219°
2026-05-06 12:29 45.57247 26.16572 34038 ft 452 kts 219°
2026-05-06 12:29 45.52203 26.11196 34039 ft 452 kts 219°
2026-05-06 12:30 45.47174 26.05864 34035 ft 452 kts 219°
2026-05-06 12:30 45.42124 26.00514 34042 ft 452 kts 219°
2026-05-06 12:31 45.37070 25.95171 34038 ft 451 kts 220°
2026-05-06 12:31 45.32053 25.89884 34039 ft 452 kts 219°
2026-05-06 12:32 45.27004 25.84571 34038 ft 451 kts 219°
2026-05-06 12:32 45.21961 25.79268 34032 ft 451 kts 220°
2026-05-06 12:33 45.16905 25.73965 34047 ft 452 kts 220°
2026-05-06 12:33 45.11845 25.68679 34045 ft 452 kts 220°
2026-05-06 12:34 45.06778 25.63392 34037 ft 452 kts 220°
2026-05-06 12:34 45.01736 25.58145 34017 ft 453 kts 220°
2026-05-06 12:35 44.96656 25.52870 34022 ft 454 kts 220°
2026-05-06 12:35 44.91556 25.47590 34002 ft 454 kts 220°
2026-05-06 12:36 44.86465 25.42317 33996 ft 454 kts 220°
2026-05-06 12:36 44.81361 25.37046 34004 ft 455 kts 220°
2026-05-06 12:37 44.76239 25.31770 34004 ft 456 kts 220°
2026-05-06 12:37 44.71153 25.26544 33998 ft 456 kts 221°
2026-05-06 12:38 44.66022 25.21287 33998 ft 456 kts 221°
2026-05-06 12:38 44.60895 25.16047 34003 ft 456 kts 221°
2026-05-06 12:39 44.55757 25.10806 34004 ft 456 kts 220°
2026-05-06 12:39 44.50620 25.05575 33998 ft 456 kts 221°
2026-05-06 12:40 44.45519 25.00399 34001 ft 456 kts 221°
2026-05-06 12:40 44.40375 24.95185 34000 ft 456 kts 221°
2026-05-06 12:41 44.35233 24.89984 33994 ft 456 kts 221°
2026-05-06 12:41 44.30081 24.84789 33999 ft 456 kts 221°
2026-05-06 12:42 44.24953 24.79640 33997 ft 457 kts 221°
2026-05-06 12:42 44.19800 24.74457 33987 ft 457 kts 221°
2026-05-06 12:43 44.14650 24.69282 33996 ft 457 kts 221°
2026-05-06 12:43 44.09488 24.64122 34011 ft 457 kts 221°
2026-05-06 12:44 44.04319 24.58970 33998 ft 457 kts 221°
2026-05-06 12:44 43.99151 24.53823 34002 ft 457 kts 221°
2026-05-06 12:45 43.93975 24.48690 34003 ft 457 kts 220°
2026-05-06 12:46 43.86257 24.41037 33998 ft 457 kts 220°
2026-05-06 12:46 43.81086 24.35922 34018 ft 457 kts 220°
2026-05-06 12:47 43.75911 24.30826 34015 ft 456 kts 220°
2026-05-06 12:47 43.70723 24.25728 34007 ft 456 kts 220°
2026-05-06 12:48 43.66453 24.21464 34008 ft 455 kts 222°
2026-05-06 12:48 43.61471 24.16092 34010 ft 453 kts 224°
2026-05-06 12:49 43.56551 24.10645 34015 ft 453 kts 224°
2026-05-06 12:49 43.51600 24.05270 34001 ft 453 kts 223°
2026-05-06 12:50 43.46612 23.99943 34003 ft 453 kts 223°
2026-05-06 12:50 43.41623 23.94634 34007 ft 453 kts 223°
2026-05-06 12:51 43.36639 23.89316 34006 ft 452 kts 223°
2026-05-06 12:51 43.31697 23.84053 34019 ft 452 kts 223°
2026-05-06 12:52 43.26719 23.78778 34021 ft 451 kts 222°
2026-05-06 12:52 43.21709 23.73573 34022 ft 451 kts 221°
2026-05-06 12:53 43.16688 23.68431 34026 ft 450 kts 221°
2026-05-06 12:53 43.11670 23.63290 34028 ft 450 kts 221°
2026-05-06 12:54 43.06674 23.58155 34030 ft 449 kts 222°
2026-05-06 12:54 43.01678 23.53030 34042 ft 448 kts 221°
2026-05-06 12:55 42.96711 23.47949 34045 ft 448 kts 221°
2026-05-06 12:55 42.91731 23.42860 34035 ft 447 kts 222°
2026-05-06 12:56 42.86753 23.37777 34044 ft 447 kts 221°
2026-05-06 12:56 42.81777 23.32710 34044 ft 446 kts 221°
2026-05-06 12:57 42.76798 23.27659 34044 ft 446 kts 221°
2026-05-06 12:57 42.71816 23.22625 34039 ft 446 kts 221°
2026-05-06 12:58 42.66867 23.17627 34044 ft 446 kts 221°
2026-05-06 12:58 42.61889 23.12605 34044 ft 445 kts 221°
2026-05-06 12:59 42.56909 23.07599 34042 ft 445 kts 221°
2026-05-06 12:59 42.51934 23.02613 34045 ft 445 kts 221°
2026-05-06 13:00 42.46956 22.97612 34039 ft 444 kts 221°
2026-05-06 13:00 42.41987 22.92639 34041 ft 444 kts 221°
2026-05-06 13:01 42.37004 22.87678 34042 ft 444 kts 221°
2026-05-06 13:01 42.32062 22.82750 34042 ft 444 kts 221°
2026-05-06 13:02 42.27083 22.77805 34038 ft 444 kts 221°
2026-05-06 13:02 42.22077 22.72839 34046 ft 443 kts 221°
2026-05-06 13:03 42.17110 22.67920 34057 ft 443 kts 221°
2026-05-06 13:03 42.12181 22.63048 34050 ft 442 kts 220°
2026-05-06 13:04 42.07235 22.58116 34054 ft 441 kts 222°
2026-05-06 13:04 42.02394 22.53044 34051 ft 440 kts 223°
2026-05-06 13:05 41.97580 22.47951 34052 ft 440 kts 223°
2026-05-06 13:05 41.92779 22.42925 34048 ft 439 kts 222°
2026-05-06 13:06 41.87943 22.37912 34056 ft 438 kts 222°
2026-05-06 13:06 41.83114 22.32921 34056 ft 437 kts 222°
2026-05-06 13:07 41.78306 22.27942 34039 ft 436 kts 222°
2026-05-06 13:07 41.73528 22.23003 34036 ft 436 kts 222°
2026-05-06 13:08 41.68719 22.18043 34022 ft 436 kts 222°
2026-05-06 13:08 41.63903 22.13092 34017 ft 436 kts 222°
2026-05-06 13:09 41.59122 22.08191 34024 ft 435 kts 221°
2026-05-06 13:09 41.54317 22.03272 34023 ft 434 kts 221°
2026-05-06 13:10 41.49531 21.98366 34034 ft 434 kts 221°
2026-05-06 13:10 41.44730 21.93467 34030 ft 434 kts 221°
2026-05-06 13:11 41.39942 21.88586 34018 ft 433 kts 221°
2026-05-06 13:11 41.35149 21.83715 34026 ft 433 kts 221°
2026-05-06 13:12 41.30387 21.78882 34030 ft 433 kts 221°
2026-05-06 13:12 41.25599 21.74031 34036 ft 431 kts 221°
2026-05-06 13:13 41.20822 21.69200 34047 ft 430 kts 221°
2026-05-06 13:13 41.16081 21.64414 34048 ft 430 kts 221°
2026-05-06 13:14 41.11310 21.59611 34040 ft 430 kts 221°
2026-05-06 13:14 41.06540 21.54820 34048 ft 430 kts 221°
2026-05-06 13:15 41.01773 21.50041 34052 ft 429 kts 221°
2026-05-06 13:15 40.97043 21.45290 34044 ft 429 kts 221°
2026-05-06 13:16 40.92285 21.40535 34049 ft 429 kts 221°
2026-05-06 13:16 40.87181 21.36412 34051 ft 436 kts 205°
2026-05-06 13:17 40.81230 21.34565 34047 ft 443 kts 192°
2026-05-06 13:17 40.75115 21.33377 34055 ft 443 kts 192°
2026-05-06 13:18 40.69015 21.32188 34050 ft 443 kts 192°
2026-05-06 13:18 40.62945 21.31005 34049 ft 444 kts 192°
2026-05-06 13:19 40.56830 21.29812 34047 ft 443 kts 192°
2026-05-06 13:19 40.50726 21.28620 34047 ft 443 kts 192°
2026-05-06 13:20 40.44700 21.27088 34058 ft 438 kts 202°
2026-05-06 13:20 40.39167 21.23905 34046 ft 433 kts 209°
2026-05-06 13:21 40.33700 21.20567 34051 ft 433 kts 209°
2026-05-06 13:21 40.28264 21.17260 34053 ft 433 kts 209°
2026-05-06 13:22 40.22794 21.13938 34065 ft 433 kts 209°
2026-05-06 13:22 40.17335 21.10628 34072 ft 432 kts 209°
2026-05-06 13:23 40.11893 21.07332 34076 ft 431 kts 209°
2026-05-06 13:23 40.06447 21.04036 34083 ft 431 kts 209°
2026-05-06 13:24 40.01046 21.00774 34077 ft 431 kts 209°
2026-05-06 13:24 39.95600 20.97486 34101 ft 430 kts 209°
2026-05-06 13:25 39.90158 20.94214 34114 ft 430 kts 209°
2026-05-06 13:25 39.84722 20.90952 34125 ft 430 kts 209°
2026-05-06 13:26 39.79283 20.87687 34129 ft 430 kts 209°
2026-05-06 13:26 39.73920 20.84285 34126 ft 426 kts 217°
2026-05-06 13:27 39.69664 20.79363 34126 ft 406 kts 235°
2026-05-06 13:27 39.68132 20.76397 34135 ft 387 kts 244°
2026-05-06 13:27 39.66991 20.73264 34106 ft 385 kts 249°
2026-05-06 13:27 39.65900 20.70000 33169 ft 404 kts 249°
2026-05-06 13:28 39.64763 20.66635 32578 ft 408 kts 248°
2026-05-06 13:28 39.63616 20.63262 32058 ft 409 kts 248°
2026-05-06 13:28 39.62461 20.59877 31503 ft 408 kts 248°
2026-05-06 13:28 39.61311 20.56518 31002 ft 406 kts 248°
2026-05-06 13:29 39.60167 20.53186 30484 ft 403 kts 248°
2026-05-06 13:29 39.59029 20.49866 29975 ft 401 kts 248°
2026-05-06 13:29 39.57900 20.46571 29438 ft 398 kts 248°
2026-05-06 13:29 39.56779 20.43295 28926 ft 395 kts 248°
2026-05-06 13:30 39.55681 20.40087 28414 ft 393 kts 248°
2026-05-06 13:30 39.54579 20.36867 27910 ft 390 kts 248°
2026-05-06 13:30 39.53482 20.33662 27405 ft 388 kts 248°
2026-05-06 13:30 39.52387 20.30465 26923 ft 387 kts 248°
2026-05-06 13:31 39.51293 20.27282 26425 ft 386 kts 248°
2026-05-06 13:31 39.50203 20.24109 25961 ft 384 kts 248°
2026-05-06 13:31 39.49115 20.20951 25477 ft 382 kts 248°
2026-05-06 13:31 39.48031 20.17816 25024 ft 381 kts 248°
2026-05-06 13:32 39.46950 20.14694 24566 ft 379 kts 248°
2026-05-06 13:32 39.45876 20.11595 24119 ft 377 kts 248°
2026-05-06 13:32 39.44820 20.08503 23666 ft 374 kts 251°
2026-05-06 13:32 39.44108 20.05333 23175 ft 370 kts 261°
2026-05-06 13:33 39.43672 20.02060 22738 ft 368 kts 261°
2026-05-06 13:33 39.43234 19.98812 22298 ft 366 kts 261°
2026-05-06 13:33 39.42788 19.95575 21856 ft 363 kts 261°
2026-05-06 13:33 39.42341 19.92368 21417 ft 361 kts 261°
2026-05-06 13:34 39.41895 19.89185 20967 ft 358 kts 261°
2026-05-06 13:34 39.41454 19.86020 20525 ft 356 kts 261°
2026-05-06 13:34 39.41019 19.82881 20078 ft 353 kts 261°
2026-05-06 13:34 39.40587 19.79763 19628 ft 351 kts 261°
2026-05-06 13:35 39.40154 19.76655 19192 ft 349 kts 261°
2026-05-06 13:35 39.39727 19.73619 18760 ft 347 kts 261°
2026-05-06 13:35 39.39299 19.70556 18312 ft 344 kts 261°
2026-05-06 13:35 39.38876 19.67522 17836 ft 342 kts 261°
2026-05-06 13:36 39.38455 19.64503 17415 ft 340 kts 261°
2026-05-06 13:36 39.38033 19.61505 16988 ft 338 kts 261°
2026-05-06 13:36 39.37611 19.58530 16567 ft 336 kts 261°
2026-05-06 13:36 39.37422 19.55554 16096 ft 332 kts 278°
2026-05-06 13:37 39.38253 19.52812 15684 ft 330 kts 306°
2026-05-06 13:37 39.39330 19.51434 15428 ft 331 kts 323°
2026-05-06 13:37 39.41375 19.50037 15031 ft 334 kts 335°
2026-05-06 13:37 39.43539 19.48934 14612 ft 334 kts 336°
2026-05-06 13:38 39.45684 19.47807 14182 ft 332 kts 335°
2026-05-06 13:38 39.47812 19.46666 13731 ft 331 kts 336°
2026-05-06 13:38 39.50005 19.45763 13000 ft 331 kts 348°
2026-05-06 13:38 39.52295 19.45771 12307 ft 333 kts
2026-05-06 13:39 39.54464 19.46823 11861 ft 334 kts 30°
2026-05-06 13:39 39.56355 19.48572 11444 ft 334 kts 35°
2026-05-06 13:39 39.58206 19.50372 11023 ft 332 kts 35°
2026-05-06 13:39 39.60045 19.52175 10598 ft 330 kts 35°
2026-05-06 13:40 39.62441 19.54527 10255 ft 318 kts 35°
2026-05-06 13:40 39.63594 19.55657 10167 ft 310 kts 34°
2026-05-06 13:40 39.65292 19.57318 9908 ft 302 kts 34°
2026-05-06 13:40 39.66966 19.58956 9685 ft 302 kts 35°
2026-05-06 13:41 39.68643 19.60598 9233 ft 302 kts 35°
2026-05-06 13:41 39.70319 19.62238 8810 ft 300 kts 35°
2026-05-06 13:41 39.71969 19.63853 8332 ft 294 kts 36°
2026-05-06 13:41 39.73609 19.65461 7869 ft 296 kts 36°
2026-05-06 13:42 39.75249 19.67076 7454 ft 294 kts 36°
2026-05-06 13:42 39.76869 19.68673 7008 ft 293 kts 36°
2026-05-06 13:42 39.78487 19.70263 6646 ft 289 kts 36°
2026-05-06 13:42 39.80097 19.71843 6190 ft 289 kts 36°
2026-05-06 13:43 39.81698 19.73415 5720 ft 288 kts 37°
2026-05-06 13:43 39.83237 19.74930 5558 ft 264 kts 36°
2026-05-06 13:43 39.84644 19.76321 5357 ft 246 kts 37°
2026-05-06 13:43 39.86010 19.77675 5225 ft 248 kts 37°
2026-05-06 13:44 39.87304 19.79165 4845 ft 253 kts 58°
2026-05-06 13:44 39.87776 19.81301 4560 ft 243 kts 97°
2026-05-06 13:44 39.87168 19.83271 4167 ft 235 kts 134°
2026-05-06 13:44 39.85954 19.84651 3760 ft 230 kts 141°
2026-05-06 13:45 39.84808 19.85976 3499 ft 215 kts 139°
2026-05-06 13:45 39.82651 19.88544 3368 ft 209 kts 139°
2026-05-06 13:45 39.81577 19.89820 3271 ft 209 kts 140°
2026-05-06 13:46 39.80399 19.90924 3205 ft 207 kts 154°
2026-05-06 13:46 39.79070 19.91612 3213 ft 200 kts 166°
2026-05-06 13:46 39.77757 19.91860 3208 ft 182 kts 179°
2026-05-06 13:46 39.76544 19.91792 3209 ft 171 kts 184°
2026-05-06 13:47 39.75378 19.91694 3175 ft 169 kts 184°
2026-05-06 13:47 39.74217 19.91598 2997 ft 168 kts 184°
2026-05-06 13:47 39.73051 19.91501 2780 ft 166 kts 184°
2026-05-06 13:47 39.71915 19.91412 2511 ft 160 kts 184°
2026-05-06 13:48 39.70838 19.91318 2267 ft 151 kts 184°
2026-05-06 13:48 39.69812 19.91230 2048 ft 145 kts 184°
2026-05-06 13:48 39.68816 19.91147 1829 ft 142 kts 184°
2026-05-06 13:48 39.67828 19.91068 1610 ft 141 kts 184°
2026-05-06 13:49 39.66864 19.90989 1382 ft 140 kts 185°
2026-05-06 13:49 39.65889 19.90905 1168 ft 140 kts 184°
2026-05-06 13:49 39.64911 19.90827 957 ft 141 kts 183°
2026-05-06 13:49 39.63930 19.90732 703 ft 141 kts 180°
2026-05-06 13:50 39.62953 19.90679 456 ft 141 kts 178°
2026-05-06 13:50 39.61984 19.90807 257 ft 140 kts 171°
2026-05-06 13:50 39.61050 19.90995 86 ft 140 kts 167°
2026-05-06 13:50 39.60145 19.91227 29 ft 124 kts 168°
2026-05-06 13:51 39.59586 19.91372 18 ft 40 kts 169°
2026-05-06 13:51 39.59460 19.91413 16 ft 1 kts 194°
2026-05-06 13:51 39.59495 19.91394 16 ft 18 kts 359°
2026-05-06 13:51 39.59603 19.91370 18 ft 16 kts 344°
2026-05-06 13:52 39.59773 19.91323 23 ft 32 kts 348°
2026-05-06 13:52 39.59994 19.91266 23 ft 33 kts 349°
2026-05-06 13:52 39.60213 19.91211 29 ft 32 kts 348°
2026-05-06 13:52 39.60420 19.91156 23 ft 28 kts 349°
2026-05-06 13:53 39.60592 19.91210 20 ft 21 kts 36°
2026-05-06 13:53 39.60603 19.91219 19 ft 0 kts 33°
2026-05-06 13:54 39.60632 19.91231 20 ft 12 kts
2026-05-06 13:54 39.60734 19.91210 20 ft 16 kts 349°
2026-05-06 13:54 39.60819 19.91204 20 ft 6 kts 51°
2026-05-06 13:54 39.60838 19.91250 21 ft 6 kts 69°
2026-05-06 13:55 39.60846 19.91298 21 ft 0 kts 79°
2026-05-06 13:55 39.60830 19.91306 23 ft 0 kts 79°